This demonstration page uses our WeatherBlox Daily Observations layout. Learn more.

Left ArrowRight Arrow

Hourly Observations for October 31, 2015

Temp ( °F °C ) Dew Point ( °F °C ) Humidity (%) Winds ( mph kmh ) Pressure ( in mb ) Visibility ( mi km ) Precip ( " mm )
12:15 am 00:15 Cloudy 39 4 37 3 93 93 SSW 5 7 29.85 1011 10 16 0.00 0.00
12:35 am 00:35 Cloudy 39 4 37 3 93 93 SSW 5 7 29.83 1010 10 16 0.00 0.00
12:55 am 00:55 Cloudy 41 5 37 3 87 87 SSW 7 11 29.83 1010 10 16 0.00 0.00
1:15 am 01:15 Cloudy 41 5 37 3 87 87 SW 7 11 29.83 1010 10 16 0.00 0.00
1:35 am 01:35 Cloudy 41 5 37 3 87 87 SW 6 9 29.83 1010 10 16 0.00 0.00
1:55 am 01:55 Cloudy 41 5 37 3 87 87 S 7 11 29.80 1009 10 16 0.00 0.00
2:15 am 02:15 Cloudy 41 5 37 3 87 87 SW 6 9 29.80 1009 10 16 0.00 0.00
2:35 am 02:35 Cloudy 41 5 37 3 87 87 WSW 6 9 29.80 1009 10 16 0.00 0.00
2:55 am 02:55 Cloudy 41 5 37 3 87 87 SW 7 11 29.80 1009 10 16 0.00 0.00
3:15 am 03:15 Cloudy 41 5 37 3 87 87 SW 6 9 29.80 1009 10 16 0.00 0.00
3:35 am 03:35 Cloudy 41 5 37 3 87 87 WSW 7 11 29.80 1009 10 16 0.00 0.00
3:55 am 03:55 Cloudy 41 5 37 3 87 87 SW 7 11 29.80 1009 10 16 0.00 0.00
4:15 am 04:15 Mostly Cloudy 39 4 36 2 87 87 WSW 6 9 29.77 1008 10 16 0.00 0.00
4:35 am 04:35 Mostly Cloudy 41 5 37 3 87 87 SW 8 13 29.77 1008 10 16 0.00 0.00
4:55 am 04:55 Cloudy 41 5 37 3 87 87 SW 9 15 29.77 1008 10 16 0.00 0.00
5:15 am 05:15 Cloudy 41 5 37 3 87 87 WSW 8 13 29.77 1008 10 16 0.00 0.00
5:35 am 05:35 Cloudy 41 5 37 3 87 87 WSW 8 13 29.77 1008 10 16 0.00 0.00
5:55 am 05:55 Cloudy 41 5 37 3 87 87 W 12 19 29.77 1008 6 10 0.00 0.00
6:15 am 06:15 Cloudy 41 5 37 3 87 87 W 14 22 29.80 1009 7 11 0.00 0.00
6:35 am 06:35 Cloudy 41 5 37 3 87 87 W 12 19 29.77 1008 4 6 0.00 0.00
6:55 am 06:55 Cloudy 41 5 37 3 87 87 W 12 19 29.77 1008 3 4 0.00 0.00
7:15 am 07:15 Cloudy 41 5 37 3 87 87 W 10 17 29.77 1008 3 5 0.00 0.00
7:35 am 07:35 Cloudy 39 4 37 3 93 93 W 7 11 29.77 1008 4 6 0.00 0.00
7:55 am 07:55 Cloudy 39 4 37 3 93 93 WSW 6 9 29.77 1008 3 5 0.00 0.00
8:15 am 08:15 Cloudy 41 5 37 3 87 87 SW 9 15 29.77 1008 1 1 0.00 0.00
8:35 am 08:35 Cloudy 39 4 37 3 93 93 WSW 10 17 29.80 1009 1 1 0.00 0.00
8:55 am 08:55 Cloudy 39 4 36 2 87 87 WSW 10 17 29.80 1009 1 1 0.00 0.00
9:15 am 09:15 Cloudy 39 4 36 2 87 87 SW 10 17 29.83 1010 3 4 0.00 0.00
9:35 am 09:35 Cloudy 39 4 37 3 93 93 SW 12 19 29.83 1010 4 6 0.00 0.00
9:55 am 09:55 Cloudy 41 5 37 3 87 87 WSW 8 13 29.83 1010 8 13 0.00 0.00
10:15 am 10:15 Mostly Cloudy 43 6 37 3 81 81 WSW 10 17 29.83 1010 10 16 0.00 0.00
10:35 am 10:35 Mostly Sunny 45 7 37 3 76 76 W 13 20 29.80 1009 10 16 0.00 0.00
10:55 am 10:55 Sunny 46 8 37 3 71 71 W 10 17 29.80 1009 10 16 0.00 0.00
11:15 am 11:15 Sunny 48 9 39 4 71 71 WNW 9 15 29.80 1009 10 16 0.00 0.00
11:35 am 11:35 Sunny 52 11 39 4 62 62 W 10 17 29.77 1008 10 16 0.00 0.00
11:55 am 11:55 Sunny 54 12 39 4 58 58 W 9 15 29.80 1009 10 16 0.00 0.00
12:15 pm 12:15 Sunny 55 13 41 5 59 59 NW 13 20 29.80 1009 10 16 0.00 0.00
12:35 pm 12:35 Sunny 57 14 41 5 55 55 NW 12 19 29.77 1008 10 16 0.00 0.00
12:55 pm 12:55 Sunny 61 16 41 5 48 48 NNW 14 22 29.74 1007 10 16 0.00 0.00
1:15 pm 13:15 Sunny 63 17 43 6 49 49 NW 13 20 29.77 1008 10 16 0.00 0.00
1:35 pm 13:35 Sunny 64 18 39 4 40 40 NNW 18 30 29.74 1007 10 16 0.00 0.00
1:55 pm 13:55 Sunny 64 18 39 4 40 40 NNW 16 26 29.74 1007 10 16 0.00 0.00
2:15 pm 14:15 Sunny 64 18 39 4 40 40 NW 16 26 29.74 1007 10 16 0.00 0.00
2:35 pm 14:35 Sunny 66 19 39 4 37 37 WNW 13 20 29.74 1007 10 16 0.00 0.00
2:55 pm 14:55 Sunny 66 19 37 3 35 35 NNW 13 20 29.74 1007 10 16 0.00 0.00
3:15 pm 15:15 Sunny 66 19 37 3 35 35 NW 9 15 29.74 1007 10 16 0.00 0.00
3:35 pm 15:35 Sunny 66 19 37 3 35 35 NW 14 22 29.74 1007 10 16 0.00 0.00
3:55 pm 15:55 Sunny 66 19 37 3 35 35 WNW 13 20 29.74 1007 10 16 0.00 0.00
4:15 pm 16:15 Sunny 66 19 37 3 35 35 WNW 13 20 29.74 1007 10 16 0.00 0.00
4:35 pm 16:35 Sunny 66 19 37 3 35 35 NW 9 15 29.74 1007 10 16 0.00 0.00
4:55 pm 16:55 Sunny 66 19 36 2 32 32 WNW 10 17 29.74 1007 10 16 0.00 0.00
5:15 pm 17:15 Sunny 66 19 37 3 35 35 WNW 8 13 29.74 1007 10 16 0.00 0.00
5:35 pm 17:35 Sunny 66 19 39 4 37 37 WNW 5 7 29.77 1008 10 16 0.00 0.00
5:55 pm 17:55 Sunny 64 18 39 4 40 40 W 5 7 29.77 1008 10 16 0.00 0.00
6:15 pm 18:15 Sunny 64 18 39 4 40 40 W 3 6 29.77 1008 10 16 0.00 0.00
6:35 pm 18:35 Clear 63 17 37 3 39 39 Calm 29.80 1009 10 16 0.00 0.00
6:55 pm 18:55 Clear 55 13 37 3 51 51 SSW 6 9 29.83 1010 10 16 0.00 0.00
7:15 pm 19:15 Clear 55 13 37 3 51 51 SSW 7 11 29.83 1010 10 16 0.00 0.00
7:35 pm 19:35 Clear 54 12 37 3 54 54 SSW 6 9 29.83 1010 10 16 0.00 0.00
7:55 pm 19:55 Clear 52 11 37 3 58 58 SSW 7 11 29.83 1010 10 16 0.00 0.00
8:15 pm 20:15 Clear 54 12 39 4 58 58 SW 7 11 29.83 1010 10 16 0.00 0.00
8:35 pm 20:35 Clear 54 12 37 3 54 54 SW 7 11 29.83 1010 10 16 0.00 0.00
8:55 pm 20:55 Clear 54 12 37 3 54 54 SW 7 11 29.83 1010 10 16 0.00 0.00
9:15 pm 21:15 Clear 52 11 37 3 58 58 SW 7 11 29.83 1010 10 16 0.00 0.00
9:35 pm 21:35 Clear 48 9 37 3 66 66 SW 9 15 29.85 1011 10 16 0.00 0.00
9:55 pm 21:55 Clear 52 11 37 3 58 58 SW 9 15 29.83 1010 10 16 0.00 0.00
10:15 pm 22:15 Clear 48 9 37 3 66 66 SW 9 15 29.85 1011 10 16 0.00 0.00

Powered by AerisWeather